Regional Weather Roundup
Issued by NWS Kansas City/Pleasant Hill, MO

Home | Current Version | Previous Version | Text Only | Print | Product List | Glossary On
Versions: 1 2 3 4 5 6 7 8 9 10 11 12 13 14 15 16 17 18 19 20 21 22 23 24 25 26 27
000
ASUS43 KEAX 200910
RWREAX

WEATHER ROUNDUP FOR EASTERN KANSAS AND NORTHWEST MISSOURI
NATIONAL WEATHER SERVICE KANSAS CITY/PLEASANT HILL MO
300 AM CST TUE FEB 20 2018

KSZ040-057-103>105-MOZ028-029-037-043-201000-
...KANSAS CITY METROPOLITAN AREA...

CITY           SKY/WX    TMP DP  RH WIND       PRES   REMARKS
K.C. INTL      FRZ DRZL  30  29  96 N6        29.80F FOG     WCI  24
K.C. DOWNTOWN  CLOUDY    32  29  88 N5        29.82F WCI  27
LEES SUMMIT    CLOUDY    32  32 100 N7        29.81F FOG     WCI  26
OLATHE - IXD   CLOUDY    30  30 100 N8        29.81F FOG     WCI  22
OLATHE - OJC   CLOUDY    30  30 100 NE6       29.79F FOG     WCI  24
LAWRENCE       CLOUDY    30  29  96 NW9       29.83S FOG     WCI  22

$$

MOZ001>008-011>017-020>025-030>033-038>040-044>046-053-054-201000-
...NORTHERN AND CENTRAL MISSOURI...

CITY           SKY/WX    TMP DP  RH WIND       PRES   REMARKS
ST. JOSEPH     CLOUDY    28  28 100 N10       29.83F WCI  19
MOSBY          MIX PCPN  32  32 100 N5        29.83S WCI  27
WARRENSBURG    LGT RAIN  36  34  93 NW8       29.82R WCI  29
WHITEMAN AFB   CLOUDY    39  37  95 CALM      29.74R
CLINTON        CLOUDY    41  41 100 CALM      29.79S
SEDALIA        CLOUDY    43  43 100 SE7       29.78F
WARSAW         NOT AVBL
CHILLICOTHE      N/A     33  32  96 VRB5      29.82R WCI  29
KIRKSVILLE     LGT RAIN  40  40 100 SE5       29.76F FOG

$$

MOZ041-047>049-056>058-063>065-088>090-097-201000-
...EASTERN AND SOUTHERN MISSOURI...

CITY           SKY/WX    TMP DP  RH WIND       PRES   REMARKS
ST. LOUIS INTL MOCLDY    68  58  70 S14G25    29.84F
SPIRIT OF STL  CLOUDY    70  59  68 S18G32    29.81F
COLUMBIA       CLOUDY    63  59  87 S16       29.78R
JEFFERSON CITY CLOUDY    66  58  75 S7        29.79S
ROLLA          CLOUDY    66  57  72 S24G33    29.84R
OSAGE BEACH    CLOUDY    67  57  70 S16G25    29.81R
SPRINGFIELD    LGT RAIN  65  58  78 S18G28    29.82S
BRANSON        CLOUDY    66  57  72 S12G21    29.90R
JOPLIN         CLOUDY    66  59  78 S21G36    29.79R
WEST PLAINS    CLOUDY    68  55  63 S12G30    29.93S

$$

IAZ060-094-KSZ022-034>040-054-083-096-NEZ052-066-093-201000-
...KANSAS...SOUTHEAST NEBRASKA AND IOWA...

CITY           SKY/WX    TMP DP  RH WIND       PRES   REMARKS
TOPEKA         FRZ RAIN  28  28 100 N7G20     29.84R FOG     WCI  21
MANHATTAN      CLOUDY    25  22  88 N8        29.88S FOG     WCI  16
EMPORIA        CLOUDY    28  27  96 N7        29.82R FOG     WCI  21
CHANUTE        FOG       35  35 100 N7        29.78F VSB 3/4 WCI  29
WICHITA        FRZ DRZL  28  27  96 N16       29.84R FOG     WCI  16
OMAHA          LGT SNOW  22  19  89 NW13      29.90S FOG     WCI  10
LINCOLN        LGT SNOW  20  18  92 N14       29.91F FOG     WCI   7
FALLS CITY     CLOUDY    26  23  88 NW13      29.86R WCI  15
LAMONI         MIX PCPN  30  28  92 NW3       29.82F FOG
DES MOINES     FRZ RAIN  29  27  92 S8        29.79F FOG     WCI  21

$$





USA.gov is the U.S. government's official web portal to all federal, state and local government web resources and services.